This is the latest recevied weather packets stored in our database for station/object SQ8AQL-16. If no packets are shown the sender has not sent any weather packets the latest 10 day(s).
| Time | Temp. | Humidity | Pressure | Rain* | Wind** | Luminosity | Snow |
|---|---|---|---|---|---|---|---|
| 1777767350 | 9.44° C | 67% | 1022.4 hPa | - | - | - | - |
| 1777766448 | 9.44° C | 67% | 1022.4 hPa | - | - | - | - |
| 1777765547 | 10° C | 66% | 1022.6 hPa | - | - | - | - |
| 1777764646 | 10° C | 66% | 1022.6 hPa | - | - | - | - |
| 1777763746 | 10° C | 66% | 1022.6 hPa | - | - | - | - |
| 1777762844 | 10.56° C | 64% | 1022.7 hPa | - | - | - | - |
| 1777761943 | 10.56° C | 63% | 1022.7 hPa | - | - | - | - |
| 1777761042 | 10.56° C | 63% | 1022.8 hPa | - | - | - | - |
| 1777759236 | 11.67° C | 60% | 1022.9 hPa | - | - | - | - |
| 1777758335 | 11.67° C | 60% | 1022.9 hPa | - | - | - | - |
| 1777757434 | 11.67° C | 60% | 1022.9 hPa | - | - | - | - |
| 1777756533 | 12.22° C | 59% | 1023 hPa | - | - | - | - |
| 1777755632 | 13.33° C | 56% | 1023.2 hPa | - | - | - | - |
| 1777754731 | 13.33° C | 56% | 1023.1 hPa | - | - | - | - |
| 1777753830 | 13.33° C | 54% | 1023.2 hPa | - | - | - | - |
| 1777752928 | 15° C | 49% | 1023.2 hPa | - | - | - | - |
| 1777752027 | 15° C | 49% | 1023.2 hPa | - | - | - | - |
| 1777751126 | 15° C | 49% | 1023.3 hPa | - | - | - | - |
| 1777750224 | 15.56° C | 47% | 1023.3 hPa | - | - | - | - |
| 1777749324 | 15.56° C | 46% | 1023.4 hPa | - | - | - | - |
| 1777748422 | 16.67° C | 44% | 1023.3 hPa | - | - | - | - |
| 1777747522 | 17.22° C | 41% | 1023.2 hPa | - | - | - | - |
| 1777746621 | 18.89° C | 36% | 1023.1 hPa | - | - | 2 W/m² | - |
| 1777745720 | 18.89° C | 36% | 1023.1 hPa | - | - | 2 W/m² | - |
| 1777744818 | 18.89° C | 36% | 1022.9 hPa | - | - | 2 W/m² | - |
* Rain since midnight (hover to see other rain measurements)
** Current wind speed in m/s (hover to see current wind gust speed)